LAN021 SCEL-SCQP

Flight info

Callsign LAN021
Flight time 0h 43m
Altitude 35000
Route ANGOD6C ANGOD UQ803 SUMKO SUMKO4E
Aircraft A321/M-SDE1E2E3FGHIRWYZ/SB1

Departure

Time 2026-04-24 14:51
Airport Comodoro Arturo Merino Benítez International Airport (SCEL)

Arrival

Time 2026-04-24 15:35
Airport La Araucanía International Airport (SCQP)
Time Latitude Longitude Altitude Speed Heading
2026-04-24 14:50 -33.37204 -70.80374 1573 ft 0 kts 178°
2026-04-24 14:50 -33.37284 -70.80369 1573 ft 40 kts 177°
2026-04-24 14:50 -33.37798 -70.80342 1573 ft 105 kts 178°
2026-04-24 14:51 -33.38704 -70.80293 1575 ft 154 kts 177°
2026-04-24 14:51 -33.39890 -70.80233 1778 ft 175 kts 178°
2026-04-24 14:51 -33.41101 -70.80173 2367 ft 179 kts 178°
2026-04-24 14:51 -33.42419 -70.80102 2602 ft 200 kts 178°
2026-04-24 14:52 -33.43885 -70.80021 2768 ft 223 kts 177°
2026-04-24 14:52 -33.45522 -70.79928 2987 ft 249 kts 177°
2026-04-24 14:52 -33.47299 -70.79829 3613 ft 260 kts 177°
2026-04-24 14:52 -33.49121 -70.79731 4397 ft 265 kts 178°
2026-04-24 14:53 -33.50984 -70.79687 5178 ft 271 kts 186°
2026-04-24 14:53 -33.52771 -70.80327 5893 ft 276 kts 207°
2026-04-24 14:53 -33.54563 -70.81208 6694 ft 282 kts 198°
2026-04-24 14:53 -33.56485 -70.81756 7425 ft 287 kts 192°
2026-04-24 14:54 -33.58470 -70.82155 8179 ft 292 kts 189°
2026-04-24 14:54 -33.60489 -70.82526 8923 ft 297 kts 190°
2026-04-24 14:54 -33.62540 -70.82928 9720 ft 301 kts 191°
2026-04-24 14:54 -33.64630 -70.83377 10355 ft 313 kts 192°
2026-04-24 14:55 -33.66079 -70.83709 10509 ft 328 kts 192°
2026-04-24 14:55 -33.69187 -70.84453 11058 ft 348 kts 193°
2026-04-24 14:55 -33.71542 -70.85033 11737 ft 352 kts 193°
2026-04-24 14:55 -33.73942 -70.85626 12512 ft 355 kts 194°
2026-04-24 14:56 -33.76402 -70.86234 13310 ft 358 kts 194°
2026-04-24 14:56 -33.78882 -70.86846 14069 ft 360 kts 194°
2026-04-24 14:56 -33.81344 -70.87457 14731 ft 362 kts 194°
2026-04-24 14:56 -33.83813 -70.88071 15423 ft 363 kts 194°
2026-04-24 14:57 -33.86296 -70.88689 16106 ft 365 kts 194°
2026-04-24 14:57 -33.88788 -70.89308 16793 ft 367 kts 195°
2026-04-24 14:57 -33.91293 -70.89930 17458 ft 368 kts 195°
2026-04-24 14:57 -33.93810 -70.90555 18104 ft 370 kts 195°
2026-04-24 14:58 -33.96342 -70.91185 18729 ft 372 kts 195°
2026-04-24 14:58 -33.98887 -70.91816 19236 ft 375 kts 195°
2026-04-24 14:58 -34.01454 -70.92450 19806 ft 377 kts 196°
2026-04-24 14:58 -34.04028 -70.93105 20313 ft 379 kts 197°
2026-04-24 14:59 -34.06610 -70.93798 20841 ft 382 kts 197°
2026-04-24 14:59 -34.09211 -70.94517 21363 ft 385 kts 198°
2026-04-24 14:59 -34.11827 -70.95246 21903 ft 387 kts 198°
2026-04-24 14:59 -34.14465 -70.95981 22422 ft 390 kts 198°
2026-04-24 15:00 -34.17113 -70.96713 22946 ft 392 kts 198°
2026-04-24 15:00 -34.19785 -70.97441 23453 ft 395 kts 198°
2026-04-24 15:00 -34.22482 -70.98172 23928 ft 398 kts 198°
2026-04-24 15:00 -34.25191 -70.98906 24318 ft 400 kts 198°
2026-04-24 15:01 -34.27904 -70.99641 24747 ft 402 kts 199°
2026-04-24 15:01 -34.30609 -71.00376 25137 ft 403 kts 199°
2026-04-24 15:01 -34.33388 -71.01135 25539 ft 405 kts 199°
2026-04-24 15:01 -34.36143 -71.01891 25918 ft 407 kts 199°
2026-04-24 15:02 -34.38908 -71.02653 26327 ft 408 kts 199°
2026-04-24 15:02 -34.41648 -71.03407 26710 ft 410 kts 199°
2026-04-24 15:02 -34.44472 -71.04182 27057 ft 412 kts 200°
2026-04-24 15:02 -34.47273 -71.04948 27459 ft 414 kts 200°
2026-04-24 15:03 -34.50093 -71.05719 27830 ft 415 kts 200°
2026-04-24 15:03 -34.52916 -71.06495 28191 ft 417 kts 200°
2026-04-24 15:03 -34.55749 -71.07273 28542 ft 419 kts 200°
2026-04-24 15:03 -34.58632 -71.08065 28889 ft 420 kts 200°
2026-04-24 15:04 -34.61497 -71.08855 29256 ft 422 kts 200°
2026-04-24 15:04 -34.64369 -71.09648 29597 ft 424 kts 200°
2026-04-24 15:04 -34.67248 -71.10441 29945 ft 426 kts 200°
2026-04-24 15:04 -34.70146 -71.11238 30266 ft 428 kts 201°
2026-04-24 15:05 -34.73018 -71.12026 30524 ft 430 kts 200°
2026-04-24 15:05 -34.75950 -71.12790 30781 ft 432 kts 200°
2026-04-24 15:05 -34.78902 -71.13511 31069 ft 434 kts 199°
2026-04-24 15:05 -34.81877 -71.14213 31349 ft 436 kts 199°
2026-04-24 15:06 -34.84866 -71.14917 31653 ft 438 kts 199°
2026-04-24 15:06 -34.87850 -71.15625 32046 ft 436 kts 199°
2026-04-24 15:06 -34.90821 -71.16337 32467 ft 435 kts 200°
2026-04-24 15:06 -34.93779 -71.17052 32866 ft 434 kts 200°
2026-04-24 15:07 -34.96780 -71.17781 33269 ft 433 kts 200°
2026-04-24 15:07 -34.99687 -71.18490 33664 ft 432 kts 200°
2026-04-24 15:07 -35.02633 -71.19211 34052 ft 431 kts 200°
2026-04-24 15:07 -35.05570 -71.19929 34411 ft 430 kts 200°
2026-04-24 15:08 -35.08529 -71.20651 34716 ft 429 kts 200°
2026-04-24 15:08 -35.11466 -71.21367 35003 ft 429 kts 200°
2026-04-24 15:08 -35.14398 -71.22084 35225 ft 430 kts 200°
2026-04-24 15:09 -35.20234 -71.23508 35285 ft 422 kts 200°
2026-04-24 15:09 -35.25975 -71.24917 35284 ft 420 kts 201°
2026-04-24 15:10 -35.31739 -71.26347 35285 ft 429 kts 200°
2026-04-24 15:10 -35.40088 -71.28418 35288 ft 438 kts 200°
2026-04-24 15:11 -35.52043 -71.31350 35284 ft 438 kts 200°
2026-04-24 15:11 -35.63998 -71.34312 35280 ft 439 kts 200°
2026-04-24 15:12 -35.75962 -71.37287 35286 ft 439 kts 200°
2026-04-24 15:12 -35.92003 -71.41248 35290 ft 441 kts 197°
2026-04-24 15:13 -35.98306 -71.40903 35282 ft 456 kts 185°
2026-04-24 15:13 -36.04354 -71.41947 35270 ft 434 kts 204°
2026-04-24 15:13 -36.15997 -71.46111 35275 ft 438 kts 201°
2026-04-24 15:14 -36.28054 -71.49125 35286 ft 441 kts 199°
2026-04-24 15:14 -36.40047 -71.52228 35286 ft 440 kts 199°
2026-04-24 15:15 -36.52049 -71.55384 35273 ft 441 kts 199°
2026-04-24 15:15 -36.64148 -71.58559 35281 ft 442 kts 199°
2026-04-24 15:16 -36.76177 -71.61727 35294 ft 441 kts 199°
2026-04-24 15:16 -36.88262 -71.64928 35290 ft 441 kts 199°
2026-04-24 15:17 -37.05106 -71.69453 35253 ft 436 kts 201°
2026-04-24 15:17 -37.10068 -71.71443 35275 ft 436 kts 199°
2026-04-24 15:18 -37.16095 -71.72775 35271 ft 442 kts 194°
2026-04-24 15:18 -37.22175 -71.73954 35271 ft 441 kts 196°
2026-04-24 15:19 -37.30951 -71.76225 35280 ft 439 kts 199°
2026-04-24 15:19 -37.36927 -71.77928 34726 ft 447 kts 198°
2026-04-24 15:19 -37.43098 -71.79630 32906 ft 454 kts 197°
2026-04-24 15:20 -37.53940 -71.82520 29397 ft 458 kts 196°
2026-04-24 15:20 -37.59958 -71.84054 27338 ft 463 kts 197°
2026-04-24 15:20 -37.66278 -71.85804 25489 ft 454 kts 197°
2026-04-24 15:20 -37.72009 -71.87691 24212 ft 401 kts 206°
2026-04-24 15:21 -37.76901 -71.90867 22914 ft 397 kts 212°
2026-04-24 15:21 -37.81704 -71.94190 21798 ft 390 kts 212°
2026-04-24 15:21 -37.86428 -71.97452 20699 ft 384 kts 212°
2026-04-24 15:21 -37.91092 -72.00680 19643 ft 379 kts 212°
2026-04-24 15:22 -37.95679 -72.03856 18651 ft 373 kts 212°
2026-04-24 15:22 -38.00199 -72.06992 17686 ft 368 kts 212°
2026-04-24 15:22 -38.04668 -72.10098 16798 ft 363 kts 212°
2026-04-24 15:23 -38.13456 -72.16214 15055 ft 353 kts 212°
2026-04-24 15:23 -38.21969 -72.22150 13191 ft 344 kts 212°
2026-04-24 15:23 -38.26123 -72.25058 12209 ft 339 kts 212°
2026-04-24 15:24 -38.37465 -72.33000 10268 ft 264 kts 213°
2026-04-24 15:25 -38.41482 -72.35844 9766 ft 271 kts 213°
2026-04-24 15:25 -38.45333 -72.38559 9460 ft 270 kts 212°
2026-04-24 15:26 -38.50278 -72.42035 8990 ft 269 kts 212°
2026-04-24 15:27 -38.55140 -72.45471 7962 ft 266 kts 212°
2026-04-24 15:27 -38.59971 -72.48883 6898 ft 265 kts 211°
2026-04-24 15:28 -38.66295 -72.53362 5505 ft 242 kts 211°
2026-04-24 15:29 -38.69018 -72.55291 4925 ft 213 kts 211°
2026-04-24 15:30 -38.72867 -72.57375 4100 ft 188 kts 200°
2026-04-24 15:31 -38.77530 -72.59202 3176 ft 166 kts 200°
2026-04-24 15:32 -38.81793 -72.60882 2313 ft 157 kts 200°
2026-04-24 15:33 -38.85869 -72.62491 1493 ft 146 kts 200°
2026-04-24 15:33 -38.88750 -72.63628 915 ft 144 kts 198°
2026-04-24 15:34 -38.90668 -72.64399 540 ft 144 kts 198°
2026-04-24 15:35 -38.92776 -72.65234 316 ft 17 kts 197°
2026-04-24 15:35 -38.92855 -72.65137 314 ft 7 kts 105°
2026-04-24 15:35 -38.92861 -72.65104 314 ft 3 kts 105°
2026-04-24 15:36 -38.92867 -72.65076 316 ft 4 kts 105°
2026-04-24 15:36 -38.92849 -72.64952 313 ft 8 kts 29°
2026-04-24 15:36 -38.92795 -72.64929 313 ft 8 kts 18°
2026-04-24 15:37 -38.92745 -72.64908 313 ft 6 kts 18°
2026-04-24 15:37 -38.92739 -72.64905 313 ft 0 kts 18°
2026-04-24 15:39 -38.92738 -72.64905 313 ft 1 kts 18°
2026-04-24 15:39 -38.92725 -72.64893 312 ft 3 kts 68°
2026-04-24 15:39 -38.92735 -72.64826 313 ft 12 kts 107°
2026-04-24 15:40 -38.92743 -72.64793 313 ft 0 kts 108°